Location: Isola Pescaroli
(45.0500°N, 10.1667°E)
Time: 02:05:04
(UTC+00:00)

Okean 3 - Pass Details

Date: 03 March 2021
Orbit: 576 x 600 km, 82.5° (Epoch: 20 April)

Event Time Altitude Azimuth Distance (km) Brightness Sun altitude
Rises 18:36:21 0° 359° (N) 2,832 7.1 -16.1°
Reaches altitude 10° 18:38:44 10° 9° (N) 1,931 6.1 -16.5°
Maximum altitude 18:42:37 33° 75° (ENE) 1,003 4.1 -17.2°
Enters shadow 18:42:44 33° 78° (ENE) 1,004 4.1 -17.2°
